User: anonymous   Login
Location: Unspecified
(0.0000°N, 0.0000°E)
Time: 13:25:21
(UTC+00:00)
Language:

Vela 3A - Orbit

View from above orbital plane
View from above orbital plane
View from above satellite
View from above satellite

Ground track
Ground track

The orbit data is extracted from the following two-line orbital elements,

1 01458U 65058A   14300.26272998 -.00001131  00000-0  00000+0 0    93
2 01458 021.0597 012.0436 4832056 190.5694 359.4710 00.21705081 77100
Epoch (UTC): 27 October 2014 06:18:19
Eccentricity: 0.4832056
inclination: 21.0597°
perigee height: 54064 km
apogee height: 167092 km
right ascension of ascending node: 12.0436°
argument of perigee: 190.5694°
revolutions per day: 0.21705081
mean anomaly at epoch: 359.4710°
orbit number at epoch: 7710

The dashed part of the orbit path shows where the satellite is in the earth's shadow,  

DLR